GOMX4-B

导读 | 星芒AI

GOMX-4B 是一颗由阿根廷国家空间活动委员会(CONAE)与加拿大MDA公司合作开发的立方体卫星,作为GOMX-4任务的一部分,于2018年发射。该卫星主要用于验证先进卫星通信技术,特别是低地球轨道(LEO)中的中继通信能力。GOMX-4B 与 GOMX-4A 配合工作,支持数据中继、轨道机动和自主操作等实验,为未来小型卫星任务和星座通信系统提供关键技术验证。

基本信息
目录编号:
43196
目录名称:
GOMX4-B
国际标识:
2018-015E
轨道中心:
EARTH
卫星名称:
GOMX4-B
卫星全名:
--
卫星状态:
已陨落 最后检测时间 2024-10-09
发射日期:
2018-02-02 UTC
国别 :
丹麦 (DK)
星等 :
--
轨道信息
数据来源 国际轨道数据
星历时间: 2024-10-09T06:07:24+0800
轨道信息已过期430天
半长轴: 6566.853km
偏心率: 0.0008923
轨道倾角: 97.578°
近地点辐角 259.844°
升交点赤经 107.688°
平近点角 100.184°
近地点: 182.858km
远地点: 194.578km
周期: 88.266分钟
每日圈数: 16.314242
详细信息
使用方式:
暂无